[[{"header":{"parameterUnit":"m.s-1","parameterCategory":1,"la1":30.2991,"la2":30.254,"lo1":-89.0895,"lo2":-89.0444,"dy":0.0017,"dx":0.0017,"nx":28,"ny":28,"refTime":"2023-11-13T03:00:00:Z","depth":0,"parameterNumber":2,"parameterNumberName":"U-component_of_WINDS"},"data":[0,0,0,0,0,0,0,0,0,0,0,0,0,0,0,0,0,0,0,0,0,0,0,0,0,0,0,0,0,0,0,0,0,0,0,0,0,0,0,0,0,0,0,0,0,0,0,0,0,0,0,0,0,0,0,0,0,0,-3.8429,-3.843,0,-3.8517,-3.8518,-3.8519,-3.8455,-3.8453,-3.845,-3.8447,-3.8537,-3.8542,-3.8547,0,0,0,0,0,0,0,0,0,0,0,0,0,-3.8208,-3.8212,-3.8429,-3.843,-3.8432,-3.8517,-3.8518,-3.8519,-3.8456,-3.8453,-3.8449,-3.8446,-3.8535,-3.8541,-3.8547,0,0,0,0,0,0,0,0,0,0,0,0,0,-3.83,-3.8213,-3.8429,-3.841,-3.841,-3.8516,-3.8518,-3.8519,-3.8457,-3.8452,-3.8448,-3.8444,-3.8533,-3.8541,-3.8548,-3.8678,0,0,-3.8571,-3.8574,0,0,0,0,0,0,0,0,-3.8295,-3.8309,-3.8412,-3.8412,-3.8411,-3.8471,-3.8472,-3.8573,-3.8458,-3.8439,-3.8447,-3.8442,-3.8518,-3.8527,-3.8552,-3.8683,-3.8686,-3.8572,-3.8576,-3.8579,-3.8581,0,0,0,0,0,0,0,-3.8289,-3.8305,-3.8464,-3.8414,-3.8413,-3.8397,-3.8406,-3.8491,-3.8501,-3.844,-3.8436,-3.8447,-3.8517,-3.8545,-3.8554,-3.8688,-3.8571,-3.8578,-3.8583,-3.8586,-3.8929,-3.8934,0,0,0,0,0,0,-3.8284,-3.83,-3.8461,-3.8467,-3.8342,-3.8405,-3.8414,-3.8456,-3.85,-3.8503,-3.845,-3.8444,-3.8535,-3.8545,-3.8557,-3.8713,-3.8579,-3.8586,-3.8591,-3.8925,-3.8931,-3.8936,0,0,0,0,0,0,-3.828,-3.8299,-3.8458,-3.8382,-3.8401,-3.8413,-3.846,-3.846,-3.8488,-3.8508,-3.8509,-3.8477,-3.8532,-3.8546,-3.8649,-3.8715,-3.859,-3.8596,-3.8919,-3.8927,-3.8933,-3.9026,0,0,0,0,0,0,-3.8274,-3.8298,-3.8348,-3.8384,-3.8405,-3.8548,-3.8464,-3.8465,-3.8501,-3.8493,-3.8533,-3.8536,-3.853,-3.8638,-3.8656,-3.8723,-3.8602,-3.8914,-3.8923,-3.8931,-3.9017,-3.9036,-3.9051,0,0,0,0,0,-3.8266,-3.837,-3.8351,-3.837,-3.8468,-3.8552,-3.8565,-3.8555,-3.8507,-3.8557,-3.8569,-3.8535,-3.8705,-3.8649,-3.8669,-3.874,-3.8909,-3.892,-3.893,-3.901,-3.9032,-3.9051,0,0,0,0,0,0,-3.8342,-3.8375,-3.8353,-3.8472,-3.851,-3.8541,-3.8604,-3.8579,-3.8631,-3.8621,-3.8607,-3.8617,-3.8724,-3.8742,-3.8679,-3.8868,-3.8799,-3.8814,-3.8853,-3.8874,-3.8891,-3.8885,-3.8609,0,0,0,0,0,-3.8373,-3.8439,-3.8464,-3.8566,-3.8586,-3.8592,-3.8629,-3.8618,-3.8657,-3.8672,-3.8692,-3.8731,-3.8793,-3.8834,-3.8893,-3.9019,-3.9027,-3.9077,-3.9094,-3.9108,-3.9122,-3.9191,-3.9213,-3.897,-3.897,-3.897,0,0,-3.8437,-3.8463,-3.8506,-3.8582,-3.861,-3.8679,-3.8606,-3.8682,-3.8733,-3.8684,-3.8782,-3.8798,-3.884,-3.8955,-3.9007,-3.8973,-3.9191,-3.9121,-3.9132,-3.9138,-3.9204,-3.9227,-3.9247,-3.8977,-3.8976,-3.8974,0,0,-3.8589,-3.8615,-3.8704,-3.8734,-3.8777,-3.878,-3.8801,-3.8837,-3.8846,-3.8944,-3.8908,-3.8969,-3.9076,-3.9108,-3.9138,-3.9302,-3.9272,-3.9321,-3.941,-3.9477,-3.9497,-3.9514,-3.9573,-3.9595,-3.9334,-3.9334,-3.9335,0,-3.8664,-3.8766,-3.8753,-3.8832,-3.8867,-3.8825,-3.8915,-3.8944,-3.9005,-3.903,-3.8991,-3.9125,-3.915,-3.9272,-3.9313,-3.9338,-3.9362,-3.9317,-3.9495,-3.9512,-3.9527,-3.9584,-3.9606,-3.934,-3.934,-3.9339,-3.9338,0,-3.8856,-3.8928,-3.8994,-3.9054,-3.9096,-3.918,-3.918,-3.9224,-3.9209,-3.9217,-3.9317,-3.9346,-3.941,-3.9438,-3.9424,-3.9559,-3.9536,-3.9497,-3.9427,-3.9557,-3.961,-3.9631,-3.9348,-3.9346,-3.9345,-3.9343,0,0,-3.906,-3.9111,-3.9136,-3.9162,-3.9207,-3.9262,-3.9344,-3.9406,-3.9445,-3.9487,-3.9556,-3.9648,-3.9611,-3.9645,-3.9635,-3.9694,-3.9823,-3.9647,-3.9647,-3.968,-3.9974,-4.0005,-4.003,-3.9803,-3.9807,-3.981,-3.9971,0,-3.9215,-3.9359,-3.9349,-3.9484,-3.9551,-3.9512,-3.9583,-3.9618,-3.9627,-3.9685,-3.9694,-3.976,-3.9706,-3.9726,-3.9783,-3.9796,-3.9882,-3.9784,-3.9868,-3.9871,-3.986,-4.0058,-4.0091,-4.0241,-3.9992,-3.9995,-3.9998,0,-3.9416,-3.9466,-3.9608,-3.9643,-3.967,-3.9735,-3.9791,-3.9847,-3.9886,-3.9888,-3.9926,-3.9906,-3.9989,-3.9917,-4.0031,-3.9964,-3.9998,-4.0009,-4.0015,-4.0024,-3.9943,-4.0073,-4.0288,-4.0311,-4.003,-4.0027,-4.0025,0,-3.9553,-3.9655,-3.9753,-3.9777,-3.982,-3.9866,-3.9886,-3.9921,-3.9959,-4.0008,-4.0033,-4.0091,-4.0123,-4.0168,-4.0164,-4.0112,-4.0281,-4.0208,-4.0286,-4.0286,-4.0325,-4.0322,-4.055,-4.0344,-4.0344,-4.0343,-4.0343,0,-3.9728,-3.9817,-3.9815,-3.9876,-3.9974,-3.9962,-4.0059,-4.0074,-4.0105,-4.0168,-4.0137,-4.0197,-4.0187,-4.0247,-4.0244,-4.034,-4.0354,-4.0359,-4.0357,-4.0362,-4.0362,-4.0385,-4.0375,-4.0349,-4.0348,-4.0347,-4.0346,0,-3.9897,-3.99,-4.0004,-4.0036,-4.0046,-4.0117,-4.0144,-4.0202,-4.0208,-4.0288,-4.0306,-4.0315,-4.0384,-4.0384,-4.0463,-4.0461,-4.0578,-4.0564,-4.0566,-4.0563,-4.0641,-4.0634,-4.0892,-4.0926,-4.0698,-4.07,-4.0702,0,-4.001,-4.0077,-4.0116,-4.0156,-4.0179,-4.0244,-4.0283,-4.0273,-4.0315,-4.0364,-4.0416,-4.0482,-4.0534,-4.0646,-4.066,-4.072,-4.0707,-4.0794,-4.0716,-4.072,-4.071,-4.0707,-4.0714,-4.0809,-4.0812,-4.0814,-4.0816,0,-4.021,-4.0208,-4.0265,-4.0323,-4.037,-4.0415,-4.0457,-4.0491,-4.0486,-4.0534,-4.0604,-4.0645,-4.0725,-4.0791,-4.0849,-4.0869,-4.0843,-4.084,-4.0861,-4.0868,-4.0866,-4.0869,-4.0608,-4.0834,-4.0832,-4.0831,-4.083,-4.0829,-4.0355,-4.0414,-4.045,-4.0515,-4.0545,-4.0585,-4.0641,-4.0653,-4.0712,-4.0776,-4.0767,-4.0845,-4.0882,-4.0957,-4.0982,-4.1044,-4.1013,-4.1044,-4.1052,-4.106,-4.1069,-4.0855,-4.1054,-4.1053,-4.1053,-4.1052,-4.1052,0,-4.0555,-4.0576,-4.0636,-4.0695,-4.0746,-4.0716,-4.076,-4.0805,-4.0874,-4.0911,-4.0963,-4.1044,-4.1108,-4.1126,-4.1188,-4.1234,-4.1223,-4.125,-4.1247,-4.1253,-4.1092,-4.1068,-4.1258,-4.1258,-4.1258,-4.1258,-4.1258,-4.1258,-4.0665,-4.0762,-4.0764,-4.0876,-4.0897,-4.0974,-4.1002,-4.1038,-4.1067,-4.1159,-4.1212,-4.1223,-4.1253,-4.1317,-4.1374,-4.1378,-4.1403,-4.1436,-4.1435,-4.1285,-4.1264,-4.1244,-4.1222,-4.1441,-4.1441,-4.159,-4.1592,-4.1593]},{"header":{"parameterUnit":"m.s-1","parameterCategory":1,"la1":30.2991,"la2":30.254,"lo1":-89.0895,"lo2":-89.0444,"dy":0.0017,"dx":0.0017,"nx":28,"ny":28,"refTime":"2023-11-13T03:00:00:Z","depth":0,"parameterNumber":3,"parameterNumberName":"V-component_of_WINDS"},"data":[0,0,0,0,0,0,0,0,0,0,0,0,0,0,0,0,0,0,0,0,0,0,0,0,0,0,0,0,0,0,0,0,0,0,0,0,0,0,0,0,0,0,0,0,0,0,0,0,0,0,0,0,0,0,0,0,0,0,-4.4816,-4.4817,0,-4.4842,-4.4842,-4.4842,-4.478,-4.4778,-4.4777,-4.4775,-4.4799,-4.4801,-4.4803,0,0,0,0,0,0,0,0,0,0,0,0,0,-4.4711,-4.4714,-4.4816,-4.4817,-4.4817,-4.4842,-4.4842,-4.4842,-4.4781,-4.4778,-4.4776,-4.4774,-4.4798,-4.4801,-4.4804,0,0,0,0,0,0,0,0,0,0,0,0,0,-4.4749,-4.4714,-4.4816,-4.4789,-4.4787,-4.4842,-4.4842,-4.4842,-4.4781,-4.4778,-4.4775,-4.4773,-4.4797,-4.48,-4.4804,-4.4885,0,0,-4.4815,-4.4817,0,0,0,0,0,0,0,0,-4.4747,-4.4753,-4.4793,-4.4791,-4.4789,-4.4805,-4.4814,-4.4857,-4.4782,-4.4783,-4.4775,-4.4771,-4.4803,-4.4806,-4.4817,-4.4886,-4.4887,-4.4815,-4.4818,-4.4819,-4.482,0,0,0,0,0,0,0,-4.4744,-4.4751,-4.4826,-4.4793,-4.4791,-4.4775,-4.4777,-4.4821,-4.4809,-4.4783,-4.4779,-4.4783,-4.4801,-4.4814,-4.4817,-4.4887,-4.4815,-4.4819,-4.4821,-4.4822,-4.5023,-4.5026,0,0,0,0,0,0,-4.4745,-4.4749,-4.4825,-4.4827,-4.476,-4.4779,-4.4781,-4.4803,-4.4808,-4.4807,-4.4785,-4.478,-4.4809,-4.4813,-4.4818,-4.4912,-4.4819,-4.4823,-4.4825,-4.502,-4.5024,-4.5027,0,0,0,0,0,0,-4.4743,-4.4753,-4.4824,-4.4787,-4.4795,-4.4784,-4.4808,-4.4805,-4.4817,-4.481,-4.4807,-4.48,-4.4807,-4.4812,-4.4869,-4.4912,-4.4824,-4.4828,-4.5016,-4.5021,-4.5025,-4.5103,0,0,0,0,0,0,-4.4741,-4.4752,-4.4784,-4.4788,-4.4797,-4.4876,-4.4811,-4.4807,-4.4824,-4.4817,-4.4824,-4.4822,-4.4805,-4.4863,-4.4872,-4.4916,-4.4831,-4.5012,-4.5018,-4.5024,-4.5096,-4.5109,-4.5121,0,0,0,0,0,-4.4737,-4.4805,-4.4786,-4.4795,-4.4837,-4.4879,-4.4884,-4.4863,-4.4828,-4.4859,-4.4854,-4.4822,-4.4906,-4.487,-4.4879,-4.4924,-4.5009,-4.5017,-4.5023,-4.5091,-4.5107,-4.512,0,0,0,0,0,0,-4.4805,-4.4805,-4.4784,-4.4855,-4.4868,-4.4868,-4.4907,-4.4881,-4.4904,-4.4896,-4.4869,-4.4871,-4.4932,-4.4934,-4.4893,-4.5002,-4.4951,-4.4961,-4.4999,-4.5015,-4.5027,-4.5025,-4.4834,0,0,0,0,0,-4.4829,-4.4864,-4.4861,-4.4924,-4.4931,-4.4918,-4.4936,-4.4919,-4.493,-4.4935,-4.4935,-4.4946,-4.4975,-4.4995,-4.5021,-4.5096,-4.5096,-4.5131,-4.5144,-4.5154,-4.5162,-4.5201,-4.5216,-4.505,-4.505,-4.505,0,0,-4.4877,-4.4881,-4.4905,-4.4938,-4.4945,-4.4981,-4.4923,-4.4964,-4.499,-4.4941,-4.4994,-4.4994,-4.5005,-4.5071,-4.51,-4.5074,-4.5208,-4.5163,-4.5171,-4.5174,-4.5209,-4.5225,-4.5239,-4.5055,-4.5054,-4.5053,0,0,-4.4984,-4.4991,-4.5043,-4.5052,-4.5065,-4.5055,-4.5068,-4.5073,-4.5071,-4.5124,-4.5088,-4.5118,-4.5169,-4.5178,-4.5189,-4.5298,-4.5269,-4.5307,-4.5372,-4.5409,-4.5423,-4.5434,-4.5472,-4.5486,-4.5316,-4.5316,-4.5316,0,-4.5042,-4.5096,-4.5074,-4.5117,-4.5132,-4.509,-4.5142,-4.5151,-4.5172,-4.5182,-4.5153,-4.5216,-4.522,-4.5287,-4.5313,-4.5324,-4.5337,-4.5307,-4.5423,-4.5434,-4.5444,-4.548,-4.5495,-4.532,-4.532,-4.5319,-4.5319,0,-4.5167,-4.5205,-4.5245,-4.5267,-4.5286,-4.5334,-4.5317,-4.5339,-4.5321,-4.5314,-4.5368,-4.5372,-4.5398,-4.5412,-4.5394,-4.5476,-4.546,-4.5427,-4.5375,-4.5465,-4.5498,-4.5512,-4.5327,-4.5325,-4.5324,-4.5323,0,0,-4.5318,-4.5325,-4.5341,-4.5349,-4.5359,-4.5388,-4.5433,-4.5458,-4.5478,-4.5493,-4.5529,-4.5573,-4.5542,-4.5555,-4.5538,-4.5571,-4.5656,-4.5534,-4.5534,-4.5556,-4.5746,-4.577,-4.5787,-4.5637,-4.564,-4.5642,-4.5745,0,-4.5423,-4.5501,-4.5482,-4.5559,-4.5593,-4.5553,-4.5591,-4.5601,-4.5596,-4.5623,-4.5617,-4.5648,-4.5606,-4.5614,-4.5645,-4.564,-4.5694,-4.5632,-4.567,-4.5672,-4.5668,-4.5804,-4.583,-4.5927,-4.5758,-4.576,-4.5762,0,-4.5556,-4.5577,-4.5657,-4.5661,-4.5674,-4.571,-4.5732,-4.5758,-4.5768,-4.5762,-4.5776,-4.5752,-4.5795,-4.5743,-4.5802,-4.576,-4.5774,-4.5774,-4.5777,-4.5779,-4.5722,-4.581,-4.5958,-4.5972,-4.5782,-4.578,-4.5779,0,-4.5657,-4.5705,-4.5759,-4.5768,-4.5774,-4.5799,-4.5803,-4.581,-4.5826,-4.5845,-4.5855,-4.5878,-4.5891,-4.5909,-4.5891,-4.5855,-4.5952,-4.5899,-4.5948,-4.5948,-4.597,-4.5969,-4.6122,-4.598,-4.598,-4.5979,-4.5979,0,-4.5777,-4.5827,-4.5805,-4.5838,-4.5893,-4.587,-4.5925,-4.5924,-4.593,-4.5962,-4.5928,-4.5958,-4.5933,-4.596,-4.5947,-4.5997,-4.6003,-4.5998,-4.5994,-4.6001,-4.6002,-4.601,-4.6003,-4.5983,-4.5982,-4.5982,-4.5981,0,-4.5899,-4.5886,-4.5943,-4.5943,-4.5945,-4.5985,-4.5985,-4.6016,-4.6007,-4.6048,-4.6056,-4.6043,-4.6074,-4.6058,-4.609,-4.608,-4.6145,-4.6132,-4.6142,-4.6138,-4.6188,-4.6183,-4.6351,-4.6372,-4.6217,-4.6219,-4.622,0,-4.5976,-4.6014,-4.6019,-4.6038,-4.6044,-4.6075,-4.6091,-4.6069,-4.6088,-4.6101,-4.613,-4.6158,-4.6179,-4.6229,-4.6223,-4.6246,-4.6233,-4.629,-4.6236,-4.6242,-4.6233,-4.6231,-4.6234,-4.6301,-4.6303,-4.6304,-4.6306,0,-4.6114,-4.6105,-4.6131,-4.6154,-4.6175,-4.6192,-4.6206,-4.6223,-4.6201,-4.6224,-4.6255,-4.6271,-4.6303,-4.6331,-4.6352,-4.6354,-4.6326,-4.6323,-4.6335,-4.6343,-4.6347,-4.6345,-4.6171,-4.6319,-4.6317,-4.6316,-4.6316,-4.6315,-4.6216,-4.6247,-4.6255,-4.6285,-4.6293,-4.6307,-4.6335,-4.633,-4.6356,-4.6381,-4.6366,-4.6402,-4.641,-4.6434,-4.644,-4.6468,-4.6445,-4.6463,-4.6467,-4.6472,-4.6479,-4.6343,-4.6471,-4.6471,-4.6471,-4.647,-4.647,0,-4.6351,-4.6354,-4.6381,-4.6402,-4.6425,-4.6397,-4.6411,-4.6431,-4.6464,-4.6474,-4.6495,-4.653,-4.6557,-4.6552,-4.6576,-4.6599,-4.6587,-4.6606,-4.6604,-4.6605,-4.6498,-4.6485,-4.6615,-4.6615,-4.6615,-4.6615,-4.6615,-4.6615,-4.6424,-4.6476,-4.6468,-4.6523,-4.6526,-4.6562,-4.6572,-4.6584,-4.6591,-4.6632,-4.6654,-4.6651,-4.6654,-4.6678,-4.6701,-4.6699,-4.6709,-4.6733,-4.6726,-4.6626,-4.6612,-4.6598,-4.6586,-4.6735,-4.6735,-4.683,-4.6831,-4.6831]}]]